• In Spain
  • List of Countries
  • For 7 days
  • Water Temperature
  • Satellite Maps
  • Weather Map
  • Weather Widgets
  • user-avatar
    Login

    Hourly Weather Kalinino

    Today, 14 August, Tuesday

    Time Temperature Precipitation Wind Pressure Humidity
    00:00 +18°C° 0.1 mm 2 mps 736 mmHg 93%
    01:00 +17°C° 0.1 mm 2 mps 736 mmHg 95%
    02:00 +17°C° 0.1 mm 2 mps 736 mmHg 96%
    03:00 +16°C° 0.1 mm 2 mps 736 mmHg 96%
    04:00 +16°C° 0 mm 1 mps 736 mmHg 97%
    05:00 +18°C° 0.2 mm 1 mps 736 mmHg 95%
    06:00 +19°C° 0.2 mm 1 mps 736 mmHg 93%
    07:00 +20°C° 0.2 mm 1 mps 736 mmHg 91%
    08:00 +21°C° 0.4 mm 1 mps 736 mmHg 84%
    09:00 +21°C° 0.4 mm 2 mps 736 mmHg 77%
    10:00 +23°C° 0 mm 2 mps 736 mmHg 73%
    11:00 +22°C° 0.6 mm 3 mps 736 mmHg 70%
    12:00 +22°C° 0.6 mm 3 mps 736 mmHg 68%
    13:00 +22°C° 0.6 mm 3 mps 736 mmHg 65%
    14:00 +21°C° 0.2 mm 3 mps 736 mmHg 67%
    15:00 +21°C° 0.2 mm 3 mps 737 mmHg 68%
    16:00 +20°C° 0 mm 3 mps 737 mmHg 69%
    17:00 +18°C° 0.1 mm 2 mps 737 mmHg 74%
    18:00 +17°C° 0.1 mm 2 mps 737 mmHg 80%
    19:00 +16°C° 0.1 mm 2 mps 737 mmHg 86%
    20:00 +15°C° 0 mm 2 mps 737 mmHg 87%
    21:00 +15°C° 0 mm 2 mps 738 mmHg 88%
    22:00 +14°C° 0 mm 2 mps 738 mmHg 90%
    23:00 +14°C° 0 mm 2 mps 738 mmHg 91%

    Tomorrow, 15 August, Wednesday

    Time Temperature Precipitation Wind Pressure Humidity
    00:00 +13°C° 0 mm 2 mps 738 mmHg 93%
    01:00 +13°C° 0 mm 2 mps 738 mmHg 94%
    02:00 +12°C° 0 mm 2 mps 738 mmHg 95%
    03:00 +12°C° 0 mm 2 mps 739 mmHg 95%
    04:00 +10°C° 0 mm 2 mps 739 mmHg 96%
    05:00 +12°C° 0 mm 2 mps 739 mmHg 93%
    06:00 +13°C° 0 mm 2 mps 739 mmHg 90%
    07:00 +13°C° 0 mm 3 mps 740 mmHg 87%
    08:00 +14°C° 0 mm 3 mps 740 mmHg 79%
    09:00 +17°C° 0 mm 3 mps 740 mmHg 71%
    10:00 +19°C° 0 mm 3 mps 740 mmHg 63%
    11:00 +20°C° 0 mm 4 mps 740 mmHg 60%
    12:00 +20°C° 0 mm 4 mps 740 mmHg 57%
    13:00 +21°C° 0 mm 4 mps 740 mmHg 53%
    14:00 +21°C° 0 mm 4 mps 740 mmHg 54%
    15:00 +21°C° 0 mm 4 mps 740 mmHg 54%
    16:00 +22°C° 0 mm 4 mps 741 mmHg 54%
    17:00 +20°C° 0 mm 3 mps 741 mmHg 61%
    18:00 +19°C° 0 mm 3 mps 741 mmHg 67%
    19:00 +18°C° 0 mm 2 mps 741 mmHg 73%
    20:00 +17°C° 0 mm 2 mps 741 mmHg 77%
    21:00 +15°C° 0 mm 2 mps 741 mmHg 80%
    22:00 +14°C° 0 mm 2 mps 741 mmHg 84%
    23:00 +14°C° 0 mm 2 mps 741 mmHg 86%

    Day after tomorrow, 16 August, Thursday

    Time Temperature Precipitation Wind Pressure Humidity
    00:00 +13°C° 0 mm 2 mps 741 mmHg 88%
    01:00 +13°C° 0 mm 2 mps 741 mmHg 91%
    02:00 +12°C° 0 mm 2 mps 741 mmHg 91%
    03:00 +12°C° 0 mm 2 mps 741 mmHg 92%
    04:00 +12°C° 0 mm 2 mps 741 mmHg 93%
    05:00 +13°C° 0 mm 2 mps 741 mmHg 88%
    06:00 +13°C° 0 mm 3 mps 740 mmHg 84%
    07:00 +14°C° 0 mm 4 mps 740 mmHg 79%
    08:00 +15°C° 0.1 mm 5 mps 739 mmHg 78%
    09:00 +16°C° 0.1 mm 5 mps 739 mmHg 76%
    10:00 +17°C° 0.1 mm 6 mps 738 mmHg 75%
    11:00 +17°C° 0.5 mm 6 mps 738 mmHg 81%
    12:00 +16°C° 0.5 mm 6 mps 738 mmHg 87%
    13:00 +15°C° 0.5 mm 6 mps 738 mmHg 93%
    14:00 +16°C° 0.3 mm 5 mps 738 mmHg 93%
    15:00 +16°C° 0.3 mm 5 mps 738 mmHg 93%
    16:00 +17°C° 0.3 mm 5 mps 738 mmHg 93%
    17:00 +18°C° 0.2 mm 4 mps 738 mmHg 93%
    18:00 +18°C° 0.2 mm 4 mps 738 mmHg 93%
    19:00 +18°C° 0.2 mm 3 mps 738 mmHg 94%
    20:00 +17°C° 0.1 mm 3 mps 738 mmHg 95%
    21:00 +16°C° 0.1 mm 3 mps 738 mmHg 96%
    22:00 +14°C° 0.1 mm 3 mps 738 mmHg 97%
    23:00 +14°C° 0 mm 2 mps 738 mmHg 97%

    17 August, Friday

    Time Temperature Precipitation Wind Pressure Humidity
    00:00 +13°C° 0 mm 2 mps 739 mmHg 98%
    01:00 +12°C° 0 mm 2 mps 739 mmHg 98%
    02:00 +12°C° 0 mm 2 mps 739 mmHg 98%
    03:00 +10°C° 0 mm 2 mps 739 mmHg 98%
    04:00 +10°C° 0 mm 2 mps 740 mmHg 98%
    05:00 +10°C° 0 mm 2 mps 740 mmHg 97%
    06:00 +12°C° 0 mm 2 mps 740 mmHg 96%
    07:00 +12°C° 0 mm 2 mps 740 mmHg 95%
    08:00 +14°C° 0 mm 2 mps 741 mmHg 88%
    09:00 +16°C° 0 mm 2 mps 741 mmHg 81%
    10:00 +17°C° 0 mm 3 mps 741 mmHg 74%
    11:00 +18°C° 0 mm 3 mps 741 mmHg 68%
    12:00 +19°C° 0 mm 3 mps 741 mmHg 61%
    13:00 +21°C° 0 mm 3 mps 741 mmHg 55%
    14:00 +21°C° 0 mm 3 mps 741 mmHg 54%
    15:00 +21°C° 0 mm 3 mps 741 mmHg 54%
    16:00 +21°C° 0 mm 3 mps 741 mmHg 54%
    17:00 +19°C° 0.2 mm 2 mps 741 mmHg 62%
    18:00 +18°C° 0.2 mm 2 mps 742 mmHg 71%
    19:00 +16°C° 0.2 mm 2 mps 742 mmHg 79%
    20:00 +15°C° 0 mm 2 mps 742 mmHg 80%
    21:00 +14°C° 0 mm 2 mps 742 mmHg 82%
    22:00 +13°C° 0 mm 2 mps 742 mmHg 83%
    23:00 +12°C° 0 mm 2 mps 742 mmHg 85%

    18 August, Saturday

    Time Temperature Precipitation Wind Pressure Humidity
    00:00 +10°C° 0 mm 2 mps 743 mmHg 86%
    01:00 +9°C° 0 mm 2 mps 743 mmHg 87%
    02:00 +9°C° 0 mm 2 mps 743 mmHg 88%
    03:00 +8°C° 0 mm 2 mps 743 mmHg 88%
    04:00 +8°C° 0 mm 2 mps 744 mmHg 89%
    05:00 +8°C° 0 mm 2 mps 744 mmHg 86%
    06:00 +9°C° 0 mm 3 mps 744 mmHg 83%
    07:00 +10°C° 0 mm 3 mps 745 mmHg 81%
    08:00 +11°C° 0 mm 4 mps 745 mmHg 74%
    09:00 +13°C° 0 mm 4 mps 745 mmHg 67%
    10:00 +14°C° 0 mm 5 mps 745 mmHg 59%
    11:00 +15°C° 0 mm 4 mps 745 mmHg 57%
    12:00 +15°C° 0 mm 4 mps 745 mmHg 55%
    13:00 +17°C° 0 mm 4 mps 744 mmHg 53%
    14:00 +17°C° 0 mm 4 mps 745 mmHg 53%
    15:00 +17°C° 0 mm 4 mps 745 mmHg 53%
    16:00 +17°C° 0 mm 4 mps 745 mmHg 54%
    17:00 +15°C° 0 mm 4 mps 745 mmHg 59%
    18:00 +14°C° 0 mm 3 mps 745 mmHg 64%
    19:00 +13°C° 0 mm 3 mps 745 mmHg 69%
    20:00 +11°C° 0 mm 3 mps 745 mmHg 73%
    21:00 +10°C° 0 mm 2 mps 746 mmHg 77%
    22:00 +9°C° 0 mm 2 mps 746 mmHg 81%
    23:00 +8°C° 0 mm 2 mps 746 mmHg 84%

    19 August, Sunday

    Time Temperature Precipitation Wind Pressure Humidity
    00:00 +8°C° 0 mm 2 mps 746 mmHg 86%
    01:00 +7°C° 0 mm 2 mps 746 mmHg 89%
    02:00 +7°C° 0 mm 2 mps 746 mmHg 90%
    03:00 +6°C° 0 mm 2 mps 747 mmHg 91%
    04:00 +6°C° 0 mm 2 mps 747 mmHg 93%
    05:00 +7°C° 0 mm 2 mps 747 mmHg 89%
    06:00 +9°C° 0 mm 1 mps 747 mmHg 85%
    07:00 +10°C° 0 mm 1 mps 747 mmHg 81%
    08:00 +12°C° 0 mm 2 mps 747 mmHg 73%
    09:00 +14°C° 0 mm 2 mps 747 mmHg 65%
    10:00 +16°C° 0 mm 2 mps 747 mmHg 57%
    11:00 +17°C° 0 mm 2 mps 747 mmHg 54%
    12:00 +18°C° 0 mm 2 mps 746 mmHg 50%
    13:00 +19°C° 0 mm 2 mps 746 mmHg 46%
    14:00 +19°C° 0 mm 2 mps 746 mmHg 47%
    15:00 +19°C° 0 mm 2 mps 746 mmHg 47%
    16:00 +19°C° 0 mm 2 mps 746 mmHg 47%
    17:00 +18°C° 0 mm 2 mps 745 mmHg 54%
    18:00 +18°C° 0 mm 1 mps 745 mmHg 61%
    19:00 +15°C° 0 mm 1 mps 745 mmHg 68%
    20:00 +14°C° 0 mm 1 mps 745 mmHg 71%
    21:00 +12°C° 0 mm 1 mps 745 mmHg 74%
    22:00 +11°C° 0 mm 1 mps 745 mmHg 77%
    23:00 +10°C° 0 mm 0 mps 745 mmHg 79%
    Show more